Flag for Poland Weather past 2 weeks in Warsaw, Poland

Now
41 °F

Clear.


Feels Like: 41 °F
Forecast: 38 / 58 °F
Wind: No wind

Location: Warsaw Okecie Airport

Current Time: Apr 22, 2015 at 12:11:38 AM

Latest Report: Apr 21, 2015 at 11:30 PM


Visibility: 10 mi

Pressure: 30.15 "Hg

Humidity: 66%

Dew point: 30 °F

Location of WarsawLocation

Historic Weather in Warsaw — Graph

°F

Warsaw temperature yesterday

Maximum temperature yesterday: 63 °F (at 5:00 PM)
Minimum temperature yesterday: 32 °F (at 3:30 AM)
Average temperature yesterday: 48 °F

Past Weeks' High & Low Weather Summary

 TemperatureHumidityPressure
High70 °F (Apr 11, 2:00 PM)100% (Apr 7, 5:30 AM)30.51 "Hg (Apr 7, 5:30 AM)
Low30 °F (Apr 7, 5:30 AM)23% (Apr 9, 6:00 PM)29.68 "Hg (Apr 16, 1:00 AM)
Average47 °F62%30.09 "Hg
* Reported Apr 6 10:00 PM — Apr 21 10:30 PM, Warsaw, Weather by CustomWeather, © 2015

Note: Actual official high and low records may vary slightly from our data, if they occured in-between our weather recording intervals... More about our weather records

Advertising

Warsaw weather history for previous 24 hours

 ConditionsComfort  
Time TempWeatherWind HumidityBarometerVisibility
10:30 PM
Tue, Apr 21
46 °FClear.1 mph62%30.12 "Hg10 mi
10:00 PM46 °FClear.2 mph62%30.12 "Hg10 mi
9:30 PM52 °FPassing clouds.6 mph50%30.12 "HgN/A
9:00 PM52 °FClear.8 mph50%30.09 "Hg10 mi
8:30 PM54 °FSunny.8 mph47%30.09 "Hg10 mi
8:00 PM54 °FSunny.8 mph51%30.07 "Hg10 mi
7:30 PM55 °FSunny.12 mph44%30.07 "Hg10 mi
7:00 PM57 °FSunny.13 mph41%30.04 "Hg10 mi
6:30 PM59 °FSunny.13 mph42%30.04 "Hg10 mi
6:00 PM57 °FSunny.17 mph44%30.04 "Hg10 mi
5:30 PM61 °FSunny.15 mph36%30.01 "Hg10 mi
5:00 PM63 °FPassing clouds.14 mph34%30.01 "HgN/A
4:30 PM61 °FPassing clouds.10 mph36%29.98 "HgN/A
4:00 PM59 °FSunny.10 mph39%30.01 "Hg10 mi
3:30 PM59 °FPassing clouds.7 mph39%29.98 "HgN/A
3:00 PM61 °FPassing clouds.10 mph36%30.01 "HgN/A
2:30 PM61 °FSunny.12 mph36%30.01 "Hg10 mi
2:00 PM57 °FPassing clouds.7 mph41%30.01 "HgN/A
1:30 PM59 °FSunny.2 mph42%30.01 "Hg10 mi
1:00 PM59 °FPassing clouds.8 mph42%30.04 "HgN/A
12:30 PM57 °FPassing clouds.7 mph41%30.04 "HgN/A
12:00 PM55 °FPassing clouds.10 mph47%30.04 "HgN/A
11:30 AM54 °FPassing clouds.9 mph47%30.07 "HgN/A
11:00 AM52 °FPassing clouds.10 mph50%30.07 "HgN/A
10:30 AM52 °FPassing clouds.12 mph47%30.07 "HgN/A
10:00 AM48 °FPassing clouds.12 mph54%30.09 "HgN/A
9:30 AM48 °FPassing clouds.9 mph54%30.09 "HgN/A
9:00 AM46 °FSunny.14 mph57%30.09 "Hg10 mi
8:30 AM45 °FPassing clouds.13 mph61%30.12 "HgN/A
8:00 AM41 °FPassing clouds.10 mph70%30.09 "HgN/A
7:30 AM39 °FSunny.10 mph75%30.09 "Hg10 mi
7:00 AM37 °FSunny.8 mph75%30.09 "Hg10 mi
6:30 AM34 °FSunny.6 mph87%30.09 "Hg10 mi
6:00 AM32 °FClear.7 mph87%30.12 "Hg10 mi
5:30 AM32 °FClear.7 mph87%30.09 "Hg10 mi
5:00 AM32 °FClear.6 mph87%30.09 "Hg10 mi
4:30 AM32 °FClear.5 mph87%30.09 "Hg10 mi
4:00 AM32 °FClear.6 mph87%30.09 "Hg10 mi
3:30 AM32 °FClear.6 mph80%30.12 "Hg10 mi
3:00 AM34 °FClear.7 mph75%30.12 "Hg10 mi
2:30 AM36 °FClear.7 mph75%30.09 "Hg10 mi
2:00 AM37 °FClear.10 mph70%30.09 "Hg10 mi
1:30 AM37 °FClear.9 mph70%30.09 "Hg10 mi
1:00 AM37 °FClear.10 mph70%30.09 "Hg10 mi
12:30 AM39 °FClear.12 mph65%30.09 "Hg10 mi
12:00 AM39 °FClear.10 mph65%30.09 "Hg10 mi
Weather by CustomWeather, © 2015

See weather overviewHow to use our weather pages